Location: Az?znagar
(16.8373°N, 80.5091°E)
Time: 11:12:26
(UTC+00:00)

Meteor PRIRODA - Pass Details

Date: 04 December 2021
Orbit: 488 x 505 km, 97.6° (Epoch: 26 January)

Event Time Altitude Azimuth Distance (km) Brightness Sun altitude
Rises 00:10:16 0° 12° (NNE) 2,558 7.1 -10.3°
Reaches altitude 10° 00:12:20 10° 13° (NNE) 1,679 6.2 -9.8°
Maximum altitude 00:15:56 82° 101° (E) 501 3.7 -9.0°
Drops below altitude 10° 00:19:34 10° 189° (S) 1,684 6.5 -8.2°
Sets 00:21:38 0° 190° (S) 2,568 7.4 -7.7°
